Olney-Noble, IL

4:52 AM CST on November 18, 2017 (GMT -0600)
Olney-Noble

Weather History for KOLY - October, 2012

Change the Weather History Date:

Wednesday, October 17, 2012

  Actual Average (KEVV) Record (KEVV)
Temperature  
Mean Temperature 64 °F -  
Max Temperature 73 °F 67 °F 86 °F (1950)
Min Temperature 55 °F 46 °F 28 °F (1948)
Degree Days  
Heating Degree Days 1    
Growing Degree Days 14 (Base 50)    
Moisture  
Dew Point 54 °F    
Average Humidity 70    
Maximum Humidity 100    
Minimum Humidity 50    
Precipitation  
Precipitation 0.27 in - - ()
Sea Level Pressure  
Sea Level Pressure 29.60 in    
Wind  
Wind Speed 10 mph (South)    
Max Wind Speed 20 mph    
Max Gust Speed 30 mph    
Visibility 10 miles    
Events Rain , Thunderstorm    
Averages and records for this station are not official NWS values.
T = Trace of Precipitation, MM = Missing Value Source: NWS Daily Summary

Daily Weather History Graph

Daily Weather History Graph

Search for Another Location

Airport or City:

Trip Planner

Search our weather history database for the weather conditions in past years. The results will help you decide how hot, cold, wet, or windy it might be!

Date:

Astronomy

Oct. 17, 2012 Rise Set
Actual Time 7:04 AM CDT 6:10 PM CDT
Civil Twilight 6:37 AM CDT 6:37 PM CDT
Nautical Twilight 6:06 AM CDT 7:08 PM CDT
Astronomical Twilight 5:35 AM CDT 7:39 PM CDT
Moon 9:36 AM CDT (10/17) 7:48 PM CDT (10/17)
Length of Visible Light 12h 00m
Length of Day
11h 06m
Waxing Crescent, 7% of the Moon is Illuminated
Oct 17
Waxing Crescent
Oct 21
First Quarter
Oct 29
Full
Nov 6
Last Quarter
Nov 13
New

Hourly Weather History & Observations

Time (CDT) Temp. Dew Point Humidity Pressure Visibility Wind Dir Wind Speed Gust Speed Precip Events Conditions
12:15 AM 64.4 °F 51.8 °F 64% 29.72 in 10.0 mi South 8.1 mph - N/A   Clear
12:35 AM 64.4 °F 51.8 °F 64% 29.72 in 10.0 mi South 6.9 mph - N/A   Clear
12:55 AM 62.6 °F 51.8 °F 68% 29.72 in 10.0 mi South 8.1 mph - N/A   Clear
1:15 AM 62.6 °F 51.8 °F 68% 29.72 in 10.0 mi South 8.1 mph - N/A   Clear
1:35 AM 62.6 °F 51.8 °F 68% 29.73 in 10.0 mi South 9.2 mph - N/A   Clear
1:55 AM 60.8 °F 51.8 °F 72% 29.72 in 10.0 mi South 8.1 mph - N/A   Clear
2:15 AM 60.8 °F 51.8 °F 72% 29.72 in 10.0 mi South 8.1 mph - N/A   Clear
2:35 AM 60.8 °F 51.8 °F 72% 29.72 in 10.0 mi South 6.9 mph - N/A   Clear
2:55 AM 59.0 °F 51.8 °F 77% 29.71 in 10.0 mi South 8.1 mph - N/A   Clear
3:15 AM 59.0 °F 51.8 °F 77% 29.70 in 10.0 mi South 10.4 mph - N/A   Clear
3:35 AM 59.0 °F 51.8 °F 77% 29.70 in 10.0 mi South 10.4 mph - N/A   Clear
3:55 AM 57.2 °F 51.8 °F 82% 29.69 in 10.0 mi SSE 6.9 mph - N/A   Clear
4:15 AM 57.2 °F 51.8 °F 82% 29.69 in 10.0 mi SSE 6.9 mph - N/A   Clear
4:35 AM 57.2 °F 50.0 °F 77% 29.68 in 10.0 mi SSE 9.2 mph - N/A   Clear
4:55 AM 57.2 °F 50.0 °F 77% 29.68 in 10.0 mi SSE 8.1 mph - N/A   Clear
5:15 AM 57.2 °F 50.0 °F 77% 29.68 in 10.0 mi SSE 9.2 mph - N/A   Clear
5:35 AM 57.2 °F 50.0 °F 77% 29.68 in 10.0 mi South 9.2 mph - N/A   Clear
5:55 AM 57.2 °F 50.0 °F 77% 29.69 in 10.0 mi South 8.1 mph - N/A   Clear
6:15 AM 57.2 °F 51.8 °F 82% 29.69 in 10.0 mi South 10.4 mph - N/A   Scattered Clouds
6:35 AM 57.2 °F 51.8 °F 82% 29.69 in 10.0 mi South 9.2 mph - N/A   Clear
6:55 AM 57.2 °F 51.8 °F 82% 29.68 in 10.0 mi South 6.9 mph - N/A   Scattered Clouds
7:15 AM 57.2 °F 51.8 °F 82% 29.68 in 10.0 mi South 9.2 mph - N/A   Mostly Cloudy
7:35 AM 57.2 °F 51.8 °F 82% 29.67 in 10.0 mi South 9.2 mph - N/A   Mostly Cloudy
7:55 AM 59.0 °F 51.8 °F 77% 29.67 in 10.0 mi SSE 11.5 mph - N/A   Scattered Clouds
8:15 AM 60.8 °F 51.8 °F 72% 29.67 in 10.0 mi South 12.7 mph 18.4 mph N/A   Clear
8:35 AM 62.6 °F 53.6 °F 72% 29.67 in 10.0 mi SSE 12.7 mph 21.9 mph N/A   Clear
8:55 AM 62.6 °F 53.6 °F 72% 29.67 in 10.0 mi South 12.7 mph 19.6 mph N/A   Mostly Cloudy
9:15 AM 62.6 °F 53.6 °F 72% 29.66 in 10.0 mi SSE 15.0 mph - N/A   Mostly Cloudy
9:35 AM 62.6 °F 53.6 °F 72% 29.66 in 10.0 mi South 15.0 mph 19.6 mph N/A   Mostly Cloudy
9:55 AM 62.6 °F 53.6 °F 72% 29.66 in 10.0 mi South 13.8 mph 18.4 mph N/A   Overcast
10:15 AM 64.4 °F 53.6 °F 68% 29.66 in 10.0 mi South 13.8 mph 20.7 mph N/A   Overcast
10:35 AM 64.4 °F 53.6 °F 68% 29.65 in 10.0 mi South 15.0 mph 20.7 mph N/A   Overcast
10:55 AM 64.4 °F 53.6 °F 68% 29.64 in 10.0 mi South 15.0 mph - N/A   Overcast
11:15 AM 64.4 °F 53.6 °F 68% 29.64 in 10.0 mi South 12.7 mph - N/A   Overcast
11:35 AM 66.2 °F 55.4 °F 68% 29.64 in 10.0 mi South 11.5 mph - N/A   Overcast
11:55 AM 66.2 °F 55.4 °F 68% 29.62 in 10.0 mi South 13.8 mph 19.6 mph N/A   Overcast
12:15 PM 66.2 °F 55.4 °F 68% 29.62 in 10.0 mi South 15.0 mph 24.2 mph N/A   Overcast
12:35 PM 68.0 °F 55.4 °F 64% 29.60 in 10.0 mi South 13.8 mph 20.7 mph N/A   Overcast
12:55 PM 71.6 °F 55.4 °F 57% 29.59 in 10.0 mi South 16.1 mph 23.0 mph N/A   Overcast
1:15 PM 71.6 °F 55.4 °F 57% 29.58 in 10.0 mi South 11.5 mph 24.2 mph N/A   Overcast
1:35 PM 73.4 °F 55.4 °F 53% 29.57 in 10.0 mi South 18.4 mph 24.2 mph N/A   Scattered Clouds
1:55 PM 73.4 °F 55.4 °F 53% 29.57 in 10.0 mi South 17.3 mph - N/A   Mostly Cloudy
2:15 PM 73.4 °F 55.4 °F 53% 29.56 in 10.0 mi South 12.7 mph 26.5 mph N/A   Scattered Clouds
2:35 PM 73.4 °F 55.4 °F 53% 29.55 in 10.0 mi South 15.0 mph 23.0 mph N/A   Scattered Clouds
2:55 PM 73.4 °F 55.4 °F 53% 29.55 in 10.0 mi South 12.7 mph 21.9 mph N/A   Scattered Clouds
3:15 PM 73.4 °F 57.2 °F 57% 29.54 in 10.0 mi South 10.4 mph 20.7 mph N/A   Scattered Clouds
3:35 PM 73.4 °F 55.4 °F 53% 29.52 in 10.0 mi South 17.3 mph - N/A   Overcast
3:55 PM 73.4 °F 55.4 °F 53% 29.51 in 10.0 mi South 18.4 mph 26.5 mph N/A   Overcast
4:15 PM 73.4 °F 55.4 °F 53% 29.50 in 10.0 mi South 15.0 mph 25.3 mph N/A   Overcast
4:35 PM 73.4 °F 55.4 °F 53% 29.49 in 10.0 mi South 16.1 mph 23.0 mph N/A   Overcast
4:55 PM 73.4 °F 55.4 °F 53% 29.47 in 10.0 mi SSE 15.0 mph 21.9 mph N/A   Overcast
5:15 PM 73.4 °F 55.4 °F 53% 29.46 in 10.0 mi SSE 15.0 mph 25.3 mph N/A   Overcast
5:35 PM 71.6 °F 55.4 °F 57% 29.45 in 10.0 mi SSE 15.0 mph - N/A   Overcast
5:55 PM 71.6 °F 53.6 °F 53% 29.43 in 10.0 mi SSE 17.3 mph 21.9 mph N/A   Mostly Cloudy
6:15 PM 71.6 °F 53.6 °F 53% 29.42 in 10.0 mi SSE 19.6 mph 28.8 mph N/A   Clear
6:35 PM 71.6 °F 51.8 °F 50% 29.38 in 10.0 mi SSE 18.4 mph 25.3 mph N/A   Clear
6:55 PM 71.6 °F 51.8 °F 50% 29.38 in 10.0 mi SSE 17.3 mph 29.9 mph N/A   Clear
7:15 PM 69.8 °F 51.8 °F 53% 29.40 in 10.0 mi SSE 15.0 mph 24.2 mph N/A Rain , Thunderstorm Light Thunderstorms and Rain
7:35 PM 68.0 °F 51.8 °F 56% 29.38 in 10.0 mi SSE 19.6 mph 28.8 mph N/A Rain , Thunderstorm Light Thunderstorms and Rain
9:35 PM 57.2 °F 57.2 °F 100% 29.48 in 10.0 mi SSE 8.1 mph - 0.18 in Rain Rain
9:55 PM 57.2 °F 57.2 °F 100% 29.50 in 10.0 mi South 5.8 mph - 0.01 in Rain Light Rain
10:15 PM 57.2 °F 57.2 °F 100% 29.49 in 10.0 mi Calm Calm - 0.01 in Rain Light Rain
10:35 PM 57.2 °F 57.2 °F 100% 29.50 in 10.0 mi WSW 3.5 mph - 0.02 in Rain Rain
10:55 PM 57.2 °F 57.2 °F 100% 29.49 in 10.0 mi South 4.6 mph - 0.03 in Rain Rain
11:15 PM 57.2 °F 57.2 °F 100% 29.49 in 10.0 mi Calm Calm - 0.05 in Rain Light Rain
11:35 PM 55.4 °F 53.6 °F 94% 29.51 in 10.0 mi NW 11.5 mph 16.1 mph 0.06 in Rain Light Rain
11:55 PM 55.4 °F 53.6 °F 94% 29.51 in 10.0 mi NW 9.2 mph - N/A   Overcast